Flag for Japan Weather past 2 weeks in Utsunomiya, Japan

Now
53 °F

Cool.


Feels Like: 48 °F
Forecast: 42 / 51 °F
Wind: 17 mph from Northeast

Location: Mito


UV Index: 5 (Moderate)

Visibility: N/A


Pressure: 30.09 "Hg

Humidity: 53%

Dew point: 36 °F

Location of UtsunomiyaLocation

Historic Weather in Utsunomiya

°F

Utsunomiya temperature yesterday

Maximum temperature yesterday: 54 °F (at 12:00 AM)
Minimum temperature yesterday: 45 °F (at 8:00 PM)
Average temperature yesterday: 48 °F

Past Weeks' High & Low Weather Summary

 TemperatureHumidityPressure
High75 °F (Apr 10, 2:00 PM)94% (Apr 19, 1:00 AM)30.13 "Hg (Apr 19, 1:00 AM)
Low35 °F (Apr 7, 6:00 AM)15% (Apr 12, 3:00 PM)29.23 "Hg (Apr 4, 2:00 PM)
Average52 °F56%29.92 "Hg
* Reported Apr 4 10:00 AM — Apr 19 10:00 AM, Utsunomiya, Weather by CustomWeather, © 2014

Note: Actual official high and low records may vary slightly from our data, if they occured in-between our weather recording intervals... More about our weather records

Advertising

Historic Weather Conditions — Data for Previous 24 hours

 ConditionsComfort  
Time TempWeatherWind HumidityBarometerVisibility
10:00 AM
Apr 19
56 °FRefreshingly cool.12 mph49%30.09 "HgN/A
9:00 AM55 °FPartly sunny.7 mph43%30.07 "Hg12 mi
8:00 AM52 °FCool.6 mph59%30.07 "HgN/A
7:00 AM47 °FCool.3 mph83%30.05 "HgN/A
5:00 AM44 °FQuite cool.3 mph93%30.00 "HgN/A
4:00 AM44 °FQuite cool.3 mph92%29.99 "HgN/A
3:00 AM44 °FOvercast.2 mph93%29.98 "Hg12 mi
2:00 AM45 °FQuite cool.3 mph94%29.97 "HgN/A
1:00 AM44 °FQuite cool.3 mph94%29.98 "HgN/A
12:00 AM44 °FQuite cool.5 mph89%30.01 "HgN/A
11:00 PM
Apr 18
45 °FCool.3 mph87%30.01 "HgN/A
10:00 PM45 °FCool.3 mph83%30.01 "HgN/A
9:00 PM45 °FLight rain. Overcast.3 mph83%30.00 "Hg9 mi
8:00 PM45 °FCool.3 mph87%30.01 "HgN/A
7:00 PM46 °FCool.3 mph82%30.00 "HgN/A
6:00 PM47 °FCool.7 mph78%29.99 "HgN/A
5:00 PM47 °FCool.6 mph74%29.99 "HgN/A
4:00 PM48 °FCool.9 mph72%29.99 "HgN/A
3:00 PM49 °FLight rain. Overcast.10 mph67%29.98 "Hg12 mi
2:00 PM49 °FCool.12 mph59%29.98 "HgN/A
1:00 PM49 °FCool.12 mph60%30.00 "HgN/A
12:00 PM48 °FCool.10 mph62%30.00 "HgN/A
11:00 AM47 °FCool.12 mph70%30.01 "HgN/A
Weather by CustomWeather, © 2014

See weather overview